2023/01/20 23:32:36+0000,-34.38,-45.15,-32.52,-44.96,-45.12,-50.13
2023/01/20 23:33:28+0000,-34.85,-45.66,-32.67,-44.19,-44.35,-52.04
2023/01/20 23:34:20+0000,-34.41,-44.97,-33.15,-44.79,-44.19,-52.39
2023/01/20 23:35:12+0000,-34.04,-47.03,-32.16,-45.81,-44.73,-51.18
2023/01/20 23:36:04+0000,-33.77,-45.72,-32.73,-46.05,-44.75,-53.00
2023/01/20 23:36:56+0000,-34.18,-45.80,-33.43,-45.37,-45.15,-49.54
2023/01/20 23:37:48+0000,-34.02,-45.32,-33.91,-45.31,-44.17,-53.75
2023/01/20 23:38:40+0000,-34.93,-45.57,-33.71,-44.81,-45.27,-51.02
2023/01/20 23:39:32+0000,-34.45,-46.23,-33.20,-44.70,-43.63,-53.12
2023/01/20 23:40:24+0000,-34.19,-45.36,-33.53,-44.16,-43.83,-48.26
2023/01/20 23:41:24+0000,-34.46,-45.23,-33.55,-44.05,-43.78,-48.47
2023/01/20 23:42:16+0000,-35.15,-45.08,-33.17,-44.02,-44.14,-50.73
2023/01/20 23:43:08+0000,-34.85,-45.60,-33.17,-45.44,-44.34,-50.94
2023/01/20 23:44:00+0000,-34.77,-45.10,-33.06,-44.74,-42.80,-49.29
2023/01/20 23:44:52+0000,-34.58,-45.27,-32.93,-45.40,-44.32,-49.37
2023/01/20 23:45:44+0000,-34.57,-45.06,-33.48,-45.63,-43.51,-52.00
2023/01/20 23:46:36+0000,-34.32,-44.12,-32.87,-45.04,-44.49,-51.46
2023/01/20 23:47:28+0000,-33.32,-43.72,-33.08,-43.84,-43.95,-46.38
2023/01/20 23:48:20+0000,-34.62,-44.45,-33.31,-45.35,-44.34,-49.23
2023/01/20 23:49:12+0000,-34.90,-44.17,-33.17,-44.63,-44.46,-51.58
2023/01/20 23:50:04+0000,-34.57,-44.21,-32.93,-45.29,-44.61,-52.86
2023/01/20 23:51:03+0000,-34.56,-44.27,-33.22,-43.95,-41.31,-52.93
2023/01/20 23:51:55+0000,-34.54,-44.70,-33.17,-44.55,-45.42,-48.88
2023/01/20 23:52:48+0000,-34.77,-43.96,-33.45,-43.94,-44.84,-53.55
2023/01/20 23:53:40+0000,-34.38,-44.47,-33.36,-44.41,-44.13,-50.94
2023/01/20 23:54:32+0000,-34.36,-44.47,-33.24,-44.61,-43.45,-50.32
2023/01/20 23:55:24+0000,-34.32,-44.41,-33.96,-44.21,-44.60,-49.37
2023/01/20 23:56:16+0000,-34.62,-44.18,-33.48,-43.90,-45.02,-51.47
2023/01/20 23:57:08+0000,-34.39,-44.31,-33.44,-43.61,-42.83,-50.06
2023/01/20 23:58:00+0000,-35.40,-44.45,-32.23,-42.44,-44.83,-48.89
2023/01/20 23:58:52+0000,-34.77,-44.87,-32.60,-44.00,-43.65,-51.30
2023/01/20 23:59:44+0000,-34.61,-44.94,-32.23,-44.01,-44.33,-51.61
2023/01/21 00:00:36+0000,-34.38,-44.76,-32.90,-45.56,-44.21,-51.37
2023/01/21 00:01:40+0000,-34.75,-45.49,-32.85,-45.24,-44.93,-51.50
2023/01/21 00:02:32+0000,-34.54,-43.76,-33.83,-42.76,-44.52,-53.30
2023/01/21 00:03:24+0000,-34.06,-44.40,-33.11,-43.19,-45.25,-47.63
2023/01/21 00:04:16+0000,-34.20,-44.63,-33.27,-44.98,-43.00,-54.08
2023/01/21 00:05:08+0000,-34.19,-44.67,-33.27,-44.68,-44.92,-48.23
2023/01/21 00:06:00+0000,-34.98,-45.00,-33.93,-43.85,-44.14,-49.92
2023/01/21 00:06:52+0000,-34.16,-44.78,-33.50,-42.25,-44.16,-49.69
2023/01/21 00:07:44+0000,-34.39,-45.17,-32.83,-43.79,-43.97,-51.51
2023/01/21 00:08:36+0000,-33.69,-44.23,-33.03,-43.76,-44.13,-50.52
2023/01/21 00:09:28+0000,-32.09,-45.88,-32.89,-42.51,-44.80,-45.42
2023/01/21 00:10:20+0000,-33.54,-45.21,-32.46,-42.92,-43.20,-44.20
2023/01/21 00:11:19+0000,-32.85,-44.39,-32.66,-43.61,-42.45,-46.05
2023/01/21 00:12:11+0000,-33.86,-44.93,-31.90,-42.18,-45.07,-50.96
2023/01/21 00:13:03+0000,-33.86,-44.82,-33.20,-43.86,-44.19,-49.66
2023/01/21 00:13:55+0000,-32.86,-45.97,-32.43,-42.83,-45.10,-46.76
2023/01/21 00:14:47+0000,-34.91,-46.06,-32.58,-43.76,-45.20,-51.17
2023/01/21 00:15:39+0000,-33.98,-46.05,-31.78,-41.54,-45.25,-49.05
2023/01/21 00:16:32+0000,-34.02,-45.94,-32.13,-41.74,-44.73,-51.67
2023/01/21 00:17:24+0000,-34.16,-45.42,-32.31,-41.90,-45.17,-44.90
2023/01/21 00:18:16+0000,-33.62,-46.56,-32.18,-42.62,-44.23,-52.75
2023/01/21 00:19:08+0000,-34.56,-45.38,-32.50,-42.36,-44.64,-50.12
2023/01/21 00:20:00+0000,-33.89,-45.53,-31.68,-42.83,-45.49,-46.23
2023/01/21 00:21:00+0000,-33.65,-44.93,-31.77,-43.10,-44.67,-45.75
2023/01/21 00:21:52+0000,-33.93,-45.92,-32.50,-43.25,-44.31,-47.51
2023/01/21 00:22:44+0000,-34.72,-44.59,-32.33,-42.82,-44.49,-50.34
2023/01/21 00:23:36+0000,-35.23,-45.05,-32.64,-43.76,-43.35,-50.08
2023/01/21 00:24:28+0000,-34.68,-45.78,-32.88,-43.76,-44.14,-45.32
2023/01/21 00:25:20+0000,-34.25,-44.71,-32.37,-41.87,-44.45,-45.16
2023/01/21 00:26:12+0000,-34.46,-44.38,-33.62,-43.41,-44.44,-46.78
2023/01/21 00:27:04+0000,-33.96,-43.99,-33.45,-43.41,-44.89,-48.97
2023/01/21 00:27:56+0000,-34.39,-45.17,-32.34,-43.03,-45.47,-45.27
2023/01/21 00:28:48+0000,-34.15,-45.70,-33.07,-43.71,-43.67,-44.89
2023/01/21 00:29:40+0000,-34.62,-45.26,-32.98,-43.05,-43.76,-49.51
2023/01/21 00:30:32+0000,-33.96,-45.40,-32.41,-42.07,-44.67,-52.87
2023/01/21 00:31:31+0000,-34.18,-45.94,-32.85,-43.63,-43.12,-48.45
2023/01/21 00:32:23+0000,-34.37,-45.91,-32.17,-42.47,-44.40,-45.98
2023/01/21 00:33:15+0000,-34.07,-45.85,-32.85,-43.86,-43.62,-50.69
2023/01/21 00:34:07+0000,-34.51,-47.17,-32.71,-42.59,-45.01,-50.53
2023/01/21 00:34:59+0000,-33.73,-46.95,-33.01,-43.36,-44.75,-45.43
2023/01/21 00:35:51+0000,-34.52,-45.57,-32.63,-44.23,-44.40,-44.11
2023/01/21 00:36:43+0000,-33.93,-43.94,-33.83,-42.99,-44.50,-51.00
2023/01/21 00:37:35+0000,-33.88,-44.92,-33.17,-43.26,-44.80,-51.86
2023/01/21 00:38:27+0000,-34.25,-46.76,-33.59,-43.47,-44.08,-44.19
2023/01/21 00:39:19+0000,-33.45,-43.62,-33.35,-43.92,-44.51,-45.69
2023/01/21 00:40:11+0000,-34.37,-42.76,-33.46,-43.50,-44.58,-51.21
2023/01/21 00:41:17+0000,-34.36,-42.72,-32.84,-43.44,-44.18,-52.18
2023/01/21 00:42:09+0000,-34.61,-45.06,-33.05,-43.28,-43.74,-50.44
2023/01/21 00:43:01+0000,-34.50,-44.03,-33.02,-43.30,-44.01,-49.53
2023/01/21 00:43:53+0000,-34.02,-45.46,-32.87,-44.02,-44.45,-49.95
2023/01/21 00:44:45+0000,-34.70,-43.58,-32.91,-42.59,-44.61,-50.24
2023/01/21 00:45:37+0000,-34.06,-44.83,-32.98,-42.56,-44.78,-51.90
2023/01/21 00:46:29+0000,-34.60,-44.67,-32.76,-42.39,-43.52,-49.82
2023/01/21 00:47:21+0000,-34.64,-45.33,-33.18,-43.82,-43.77,-50.72
2023/01/21 00:48:13+0000,-33.84,-44.39,-32.72,-42.03,-45.22,-51.52
2023/01/21 00:49:05+0000,-33.86,-44.74,-33.02,-43.63,-43.57,-50.22
2023/01/21 00:49:57+0000,-33.87,-44.29,-32.03,-43.23,-44.51,-26.16
2023/01/21 00:50:49+0000,-33.91,-44.45,-32.74,-41.87,-44.93,-26.08
2023/01/21 00:51:49+0000,-33.83,-44.77,-32.06,-41.70,-45.06,-51.68
2023/01/21 00:52:41+0000,-34.20,-44.21,-33.12,-42.96,-44.99,-51.56
2023/01/21 00:53:33+0000,-34.25,-45.53,-33.24,-41.39,-43.51,-52.18
2023/01/21 00:54:25+0000,-34.48,-45.40,-33.00,-42.22,-44.49,-25.87
2023/01/21 00:55:17+0000,-33.78,-45.20,-32.84,-42.11,-42.76,-53.12
2023/01/21 00:56:09+0000,-34.72,-44.77,-33.03,-41.64,-44.41,-52.02
2023/01/21 00:57:01+0000,-34.26,-46.47,-33.26,-43.04,-43.84,-25.90
2023/01/21 00:57:53+0000,-34.67,-46.47,-33.59,-41.95,-44.04,-52.69
2023/01/21 00:58:45+0000,-34.28,-45.30,-33.34,-41.13,-43.62,-51.88
2023/01/21 00:59:37+0000,-34.41,-46.26,-33.01,-42.12,-44.16,-51.57
2023/01/21 01:00:29+0000,-34.47,-45.67,-32.96,-41.99,-44.40,-52.78
2023/01/21 01:01:29+0000,-34.22,-46.46,-33.18,-43.07,-43.73,-51.66
2023/01/21 01:02:21+0000,-34.84,-44.87,-32.95,-43.06,-44.21,-51.17
2023/01/21 01:03:13+0000,-34.55,-42.83,-32.83,-41.25,-44.95,-51.89
2023/01/21 01:04:05+0000,-35.11,-44.64,-32.45,-41.03,-44.83,-51.65
2023/01/21 01:04:57+0000,-34.13,-44.65,-33.39,-42.49,-44.64,-51.72
2023/01/21 01:05:49+0000,-34.16,-42.01,-32.94,-43.14,-44.86,-52.72
2023/01/21 01:06:41+0000,-34.45,-43.40,-32.76,-42.78,-44.40,-51.88
2023/01/21 01:07:33+0000,-34.84,-45.21,-32.97,-43.59,-43.76,-52.23
2023/01/21 01:08:26+0000,-34.27,-44.91,-33.15,-43.00,-44.69,-52.31
2023/01/21 01:09:18+0000,-34.29,-41.50,-32.95,-43.45,-43.80,-52.49
2023/01/21 01:10:10+0000,-34.37,-42.35,-32.76,-42.74,-44.96,-51.98
2023/01/21 01:11:09+0000,-34.36,-43.14,-32.86,-43.40,-44.71,-53.12
2023/01/21 01:12:01+0000,-34.36,-42.72,-32.69,-42.04,-44.72,-53.08
2023/01/21 01:12:53+0000,-33.82,-43.72,-31.95,-40.37,-43.49,-51.89
2023/01/21 01:13:45+0000,-34.91,-43.83,-32.15,-41.45,-43.90,-51.82
2023/01/21 01:14:37+0000,-33.63,-41.99,-31.58,-41.93,-44.49,-52.56
2023/01/21 01:15:29+0000,-35.44,-42.24,-31.94,-42.52,-43.64,-52.45
2023/01/21 01:16:21+0000,-34.68,-45.52,-31.75,-40.58,-43.99,-52.70
2023/01/21 01:17:13+0000,-34.21,-43.99,-31.68,-42.73,-42.80,-52.48
2023/01/21 01:18:06+0000,-34.03,-44.07,-31.69,-43.03,-44.13,-52.24
2023/01/21 01:18:58+0000,-34.22,-43.73,-31.90,-41.13,-44.06,-52.32
2023/01/21 01:19:50+0000,-34.44,-44.86,-31.29,-43.38,-43.72,-52.63
2023/01/21 01:20:42+0000,-34.36,-43.96,-31.44,-42.14,-44.31,-51.69
2023/01/21 01:21:41+0000,-34.51,-41.68,-32.48,-42.13,-45.39,-52.05
2023/01/21 01:22:33+0000,-34.48,-44.48,-32.54,-42.65,-44.59,-52.44
2023/01/21 01:23:25+0000,-34.58,-42.86,-31.30,-41.43,-44.75,-52.27
2023/01/21 01:24:17+0000,-34.62,-41.33,-31.73,-42.82,-44.18,-52.42
2023/01/21 01:25:09+0000,-34.96,-41.84,-31.95,-41.55,-44.83,-51.78
2023/01/21 01:26:01+0000,-33.81,-43.66,-31.73,-41.99,-44.52,-52.46
2023/01/21 01:26:54+0000,-34.26,-44.53,-31.47,-42.16,-45.40,-52.17
2023/01/21 01:27:46+0000,-33.99,-42.46,-31.06,-42.55,-43.49,-51.73
2023/01/21 01:28:38+0000,-33.64,-43.66,-31.91,-42.16,-44.49,-52.34
2023/01/21 01:29:30+0000,-33.03,-43.15,-31.50,-41.91,-44.75,-52.03
2023/01/21 01:30:22+0000,-34.10,-43.41,-31.56,-42.50,-44.54,-52.27
2023/01/21 01:31:22+0000,-34.14,-43.23,-31.05,-42.67,-44.03,-52.43
2023/01/21 01:32:14+0000,-33.76,-40.91,-31.93,-42.37,-43.83,-52.28
2023/01/21 01:33:06+0000,-34.53,-44.26,-32.13,-41.52,-44.48,-52.11
2023/01/21 01:33:58+0000,-32.65,-43.21,-31.76,-42.79,-43.86,-52.40
2023/01/21 01:34:50+0000,-33.39,-42.08,-31.69,-43.35,-44.84,-52.32
2023/01/21 01:35:42+0000,-34.57,-41.27,-31.22,-42.68,-43.96,-52.32
2023/01/21 01:36:34+0000,-33.58,-43.48,-31.61,-42.35,-43.44,-52.65
2023/01/21 01:37:26+0000,-34.06,-43.02,-31.96,-41.97,-45.20,-51.49
2023/01/21 01:38:18+0000,-33.63,-40.65,-32.02,-43.30,-44.04,-52.25
2023/01/21 01:39:10+0000,-34.06,-40.30,-31.89,-42.50,-44.78,-51.92
2023/01/21 01:40:03+0000,-34.65,-43.61,-31.82,-41.85,-44.96,-52.05
2023/01/21 01:41:02+0000,-33.67,-43.11,-32.21,-41.77,-44.67,-52.96
2023/01/21 01:41:54+0000,-33.71,-43.18,-31.88,-40.49,-43.98,-51.99
2023/01/21 01:42:46+0000,-33.76,-41.33,-32.35,-41.47,-44.03,-52.95
2023/01/21 01:43:38+0000,-34.04,-43.65,-32.36,-41.92,-43.72,-52.36
2023/01/21 01:44:30+0000,-34.52,-42.31,-32.25,-40.71,-43.45,-52.44
2023/01/21 01:45:22+0000,-33.57,-44.05,-32.16,-40.62,-43.98,-52.74
2023/01/21 01:46:14+0000,-32.47,-41.22,-32.06,-41.05,-44.76,-52.89
2023/01/21 01:47:06+0000,-34.06,-42.31,-31.95,-42.04,-44.05,-52.96
2023/01/21 01:47:58+0000,-34.11,-43.59,-31.85,-40.40,-44.56,-52.33
2023/01/21 01:48:50+0000,-33.77,-41.65,-31.52,-42.30,-44.46,-52.55
2023/01/21 01:49:43+0000,-33.96,-42.98,-31.24,-41.09,-44.26,-52.98
2023/01/21 01:50:35+0000,-33.16,-40.78,-31.64,-41.94,-44.99,-52.34
2023/01/21 01:51:34+0000,-34.45,-42.51,-31.75,-42.65,-43.86,-52.84
2023/01/21 01:52:26+0000,-33.72,-41.09,-32.39,-41.61,-44.39,-52.57
2023/01/21 01:53:18+0000,-34.10,-40.85,-31.46,-41.07,-44.25,-52.36
2023/01/21 01:54:10+0000,-33.55,-40.62,-31.70,-42.05,-43.80,-53.27
2023/01/21 01:55:02+0000,-33.68,-43.47,-31.82,-38.49,-43.84,-53.03
2023/01/21 01:55:55+0000,-34.30,-43.18,-31.59,-39.10,-44.08,-52.41
2023/01/21 01:56:47+0000,-33.71,-43.24,-31.68,-39.39,-43.14,-52.78
2023/01/21 01:57:39+0000,-33.47,-43.04,-31.94,-38.60,-44.42,-52.83
2023/01/21 01:58:31+0000,-34.20,-40.87,-31.95,-37.75,-44.08,-52.45
2023/01/21 01:59:23+0000,-34.15,-42.67,-32.09,-38.71,-44.16,-52.73
2023/01/21 02:00:15+0000,-33.72,-43.64,-32.47,-39.39,-44.09,-52.77
2023/01/21 02:01:16+0000,-34.29,-43.69,-31.80,-38.13,-44.26,-52.64
2023/01/21 02:02:08+0000,-34.40,-42.61,-31.27,-38.84,-44.40,-52.95
2023/01/21 02:03:00+0000,-33.81,-42.84,-31.83,-38.04,-43.82,-52.54
2023/01/21 02:03:52+0000,-34.56,-43.69,-31.74,-38.91,-44.63,-52.96
2023/01/21 02:04:44+0000,-34.04,-41.64,-31.83,-39.20,-44.32,-52.46
2023/01/21 02:05:36+0000,-33.40,-45.76,-32.29,-39.45,-43.73,-52.83
2023/01/21 02:06:28+0000,-34.16,-44.93,-32.48,-39.98,-44.59,-52.51
2023/01/21 02:07:20+0000,-33.75,-45.51,-31.89,-39.66,-44.09,-52.87
2023/01/21 02:08:12+0000,-34.00,-41.82,-32.92,-39.67,-43.76,-52.60
2023/01/21 02:09:04+0000,-33.48,-44.81,-32.25,-40.54,-44.44,-52.90
2023/01/21 02:09:56+0000,-34.48,-42.76,-33.84,-38.38,-43.50,-53.03
2023/01/21 02:10:48+0000,-34.34,-41.42,-33.78,-37.91,-44.38,-52.92
2023/01/21 02:11:48+0000,-33.02,-41.84,-32.96,-39.02,-43.45,-52.71
2023/01/21 02:12:40+0000,-34.54,-42.26,-32.74,-38.30,-44.41,-52.59
2023/01/21 02:13:32+0000,-33.88,-44.40,-33.19,-38.84,-43.96,-51.99
2023/01/21 02:14:24+0000,-34.27,-43.39,-33.42,-38.93,-43.87,-51.94
2023/01/21 02:15:16+0000,-35.19,-44.74,-33.38,-38.89,-44.31,-52.87
2023/01/21 02:16:08+0000,-33.83,-41.51,-33.15,-39.49,-44.10,-51.07
2023/01/21 02:17:00+0000,-33.53,-41.38,-33.14,-38.82,-44.57,-52.42
2023/01/21 02:17:52+0000,-33.64,-43.28,-31.59,-38.97,-44.37,-52.26
2023/01/21 02:18:44+0000,-33.41,-44.43,-31.65,-39.17,-44.88,-52.28
2023/01/21 02:19:36+0000,-31.61,-45.32,-31.66,-38.05,-44.53,-52.26
2023/01/21 02:20:29+0000,-32.95,-42.01,-31.90,-38.36,-43.31,-54.14
2023/01/21 02:21:28+0000,-34.57,-40.21,-33.66,-39.45,-44.12,-54.70
2023/01/21 02:22:20+0000,-35.18,-44.27,-32.46,-39.54,-44.14,-54.15
2023/01/21 02:23:12+0000,-32.92,-41.78,-32.60,-38.46,-43.93,-53.91
2023/01/21 02:24:05+0000,-34.06,-42.02,-32.94,-39.86,-44.18,-54.15
2023/01/21 02:24:57+0000,-34.88,-41.94,-33.14,-39.77,-44.39,-54.27
2023/01/21 02:25:49+0000,-32.66,-43.02,-31.98,-40.10,-43.91,-53.54
2023/01/21 02:26:41+0000,-33.35,-43.55,-31.79,-37.17,-43.51,-53.84
2023/01/21 02:27:33+0000,-32.27,-43.32,-32.01,-38.39,-43.94,-54.00
2023/01/21 02:28:25+0000,-33.34,-41.68,-31.02,-37.44,-43.78,-53.79
2023/01/21 02:29:17+0000,-32.31,-40.33,-31.80,-38.02,-44.04,-54.16
2023/01/21 02:30:09+0000,-32.55,-41.47,-30.57,-40.04,-44.56,-53.55
2023/01/21 02:31:08+0000,-31.25,-43.43,-32.35,-39.34,-43.80,-53.70
2023/01/21 02:32:00+0000,-32.65,-38.89,-31.63,-39.32,-43.83,-53.10
2023/01/21 02:32:52+0000,-32.79,-44.28,-32.07,-39.70,-44.15,-54.37
2023/01/21 02:33:44+0000,-34.23,-43.15,-33.00,-40.39,-43.53,-53.98
2023/01/21 02:34:36+0000,-33.80,-43.95,-33.39,-40.36,-43.95,-53.48
2023/01/21 02:35:28+0000,-33.87,-41.50,-33.02,-40.65,-43.51,-53.76
2023/01/21 02:36:21+0000,-33.49,-41.94,-33.05,-40.87,-43.97,-54.26
2023/01/21 02:37:13+0000,-32.01,-41.73,-32.71,-41.44,-43.82,-53.52
2023/01/21 02:38:05+0000,-33.75,-44.16,-32.42,-42.02,-43.63,-54.53
2023/01/21 02:38:57+0000,-32.38,-42.72,-31.60,-39.83,-43.49,-54.11
2023/01/21 02:39:49+0000,-33.16,-39.43,-32.42,-39.41,-44.22,-54.54
2023/01/21 02:40:41+0000,-33.68,-41.33,-33.21,-39.42,-43.62,-54.25
2023/01/21 02:41:40+0000,-33.04,-42.73,-34.00,-40.06,-43.76,-54.02
2023/01/21 02:42:32+0000,-34.21,-43.92,-32.80,-40.47,-43.99,-54.74
2023/01/21 02:43:24+0000,-33.33,-42.22,-32.55,-38.81,-44.17,-54.25
2023/01/21 02:44:16+0000,-34.01,-42.84,-32.82,-39.16,-44.02,-53.91
2023/01/21 02:45:08+0000,-33.52,-43.37,-32.37,-39.95,-44.16,-54.10
2023/01/21 02:46:00+0000,-33.44,-43.22,-33.08,-37.94,-43.75,-54.29
2023/01/21 02:46:52+0000,-33.23,-44.36,-32.20,-38.61,-44.39,-53.98
2023/01/21 02:47:44+0000,-33.77,-42.30,-32.90,-39.24,-43.76,-54.02
2023/01/21 02:48:36+0000,-33.62,-43.55,-33.32,-39.76,-43.56,-54.10
2023/01/21 02:49:28+0000,-33.64,-43.59,-33.09,-39.39,-43.61,-54.12
2023/01/21 02:50:21+0000,-33.60,-43.01,-31.97,-39.90,-43.59,-54.28
2023/01/21 02:51:20+0000,-32.34,-43.04,-31.77,-40.12,-43.63,-53.94
2023/01/21 02:52:12+0000,-34.24,-42.31,-32.96,-40.20,-43.91,-53.98
2023/01/21 02:53:04+0000,-34.19,-43.87,-33.10,-39.15,-44.13,-54.84
2023/01/21 02:53:56+0000,-33.52,-44.27,-31.59,-38.57,-43.52,-53.63
2023/01/21 02:54:48+0000,-33.05,-44.33,-32.57,-39.25,-44.44,-53.69
2023/01/21 02:55:40+0000,-33.62,-44.38,-32.37,-39.36,-43.66,-54.11
2023/01/21 02:56:32+0000,-34.23,-44.52,-33.10,-39.30,-43.73,-53.88
2023/01/21 02:57:24+0000,-33.18,-45.76,-32.24,-39.49,-44.14,-54.01
2023/01/21 02:58:16+0000,-32.81,-43.80,-32.01,-38.93,-43.63,-54.01
2023/01/21 02:59:08+0000,-33.11,-43.00,-31.82,-39.21,-43.87,-53.93
2023/01/21 03:00:00+0000,-32.51,-43.27,-32.47,-38.50,-44.79,-53.78
2023/01/21 03:01:00+0000,-33.38,-43.91,-32.40,-38.14,-43.80,-53.77
2023/01/21 03:01:52+0000,-33.34,-43.65,-32.46,-39.95,-43.32,-53.79
2023/01/21 03:02:44+0000,-32.80,-44.92,-32.14,-40.63,-44.69,-54.08
2023/01/21 03:03:36+0000,-32.66,-46.45,-31.62,-39.88,-44.12,-53.37
2023/01/21 03:04:29+0000,-33.42,-44.75,-32.12,-38.33,-43.53,-53.61
2023/01/21 03:05:21+0000,-32.41,-45.81,-32.27,-39.13,-44.07,-53.85
2023/01/21 03:06:13+0000,-32.86,-45.31,-32.63,-39.48,-44.05,-53.86
2023/01/21 03:07:05+0000,-32.61,-46.20,-31.11,-39.67,-44.29,-54.27
2023/01/21 03:07:57+0000,-32.79,-43.93,-32.08,-39.47,-43.38,-54.65
2023/01/21 03:08:49+0000,-30.90,-46.33,-32.11,-40.93,-43.90,-53.32
2023/01/21 03:09:41+0000,-32.45,-43.81,-31.37,-38.89,-44.24,-53.22
2023/01/21 03:10:33+0000,-32.39,-44.74,-31.66,-40.38,-44.05,-53.48
2023/01/21 03:11:32+0000,-33.37,-45.94,-31.81,-40.20,-44.51,-54.26
2023/01/21 03:12:24+0000,-31.42,-45.27,-32.37,-39.97,-43.95,-54.02
2023/01/21 03:13:16+0000,-31.97,-43.29,-32.24,-39.28,-44.50,-53.98
2023/01/21 03:14:08+0000,-33.79,-44.21,-32.49,-39.19,-44.09,-53.83
2023/01/21 03:15:01+0000,-34.00,-43.97,-31.77,-39.07,-45.14,-53.73
2023/01/21 03:15:53+0000,-30.87,-44.97,-31.51,-39.56,-44.92,-53.81
2023/01/21 03:16:45+0000,-32.24,-44.29,-32.04,-40.42,-45.02,-53.85
2023/01/21 03:17:37+0000,-32.78,-45.78,-32.79,-40.83,-44.51,-53.64
2023/01/21 03:18:29+0000,-34.10,-44.49,-32.89,-40.51,-44.88,-53.80
2023/01/21 03:19:21+0000,-34.39,-46.11,-32.92,-39.65,-44.16,-53.61
2023/01/21 03:20:13+0000,-33.26,-43.09,-31.55,-40.41,-44.34,-53.72
2023/01/21 03:21:12+0000,-33.07,-44.51,-32.55,-40.48,-44.37,-53.31
2023/01/21 03:22:04+0000,-34.51,-44.58,-32.77,-40.62,-45.08,-53.47
2023/01/21 03:22:56+0000,-32.04,-44.87,-32.04,-39.90,-44.03,-53.56
2023/01/21 03:23:48+0000,-31.65,-43.77,-33.68,-39.39,-44.29,-53.95
2023/01/21 03:24:40+0000,-32.11,-44.18,-31.85,-39.48,-43.96,-53.85
2023/01/21 03:25:32+0000,-31.99,-44.69,-33.14,-40.21,-44.09,-54.09
2023/01/21 03:26:24+0000,-33.55,-45.66,-32.52,-41.60,-45.43,-53.95
2023/01/21 03:27:17+0000,-32.51,-43.65,-32.84,-41.18,-44.91,-53.67
2023/01/21 03:28:09+0000,-33.71,-44.12,-32.59,-39.96,-44.67,-52.88
2023/01/21 03:29:01+0000,-32.63,-44.39,-32.65,-41.23,-45.01,-53.26
2023/01/21 03:29:53+0000,-32.55,-44.94,-32.89,-40.68,-45.09,-53.75
2023/01/21 03:30:45+0000,-33.08,-44.10,-32.86,-41.07,-44.96,-54.09
2023/01/21 03:31:44+0000,-32.95,-44.59,-31.81,-39.43,-44.96,-54.00
2023/01/21 03:32:36+0000,-33.74,-45.09,-32.11,-39.55,-44.53,-52.77
2023/01/21 03:33:28+0000,-31.66,-43.06,-32.20,-39.27,-45.14,-53.32
2023/01/21 03:34:20+0000,-31.58,-44.01,-31.80,-40.58,-45.70,-53.89
2023/01/21 03:35:12+0000,-33.15,-44.48,-33.12,-40.09,-45.15,-53.70
2023/01/21 03:36:04+0000,-32.93,-44.14,-31.94,-41.12,-45.06,-53.60
2023/01/21 03:36:56+0000,-31.49,-44.31,-32.36,-39.97,-45.11,-54.17
2023/01/21 03:37:48+0000,-33.20,-44.20,-32.85,-40.65,-44.99,-53.73
2023/01/21 03:38:40+0000,-33.53,-44.15,-33.55,-40.20,-44.81,-54.24
2023/01/21 03:39:32+0000,-32.68,-43.99,-33.67,-40.51,-44.99,-53.98
2023/01/21 03:40:25+0000,-32.45,-44.44,-33.19,-44.21,-46.06,-53.52
2023/01/21 03:41:25+0000,-31.95,-44.04,-33.07,-44.06,-44.92,-53.45
2023/01/21 03:42:17+0000,-34.44,-43.24,-33.10,-44.13,-44.72,-53.39
2023/01/21 03:43:09+0000,-32.97,-42.76,-32.98,-43.72,-44.81,-53.05
2023/01/21 03:44:01+0000,-34.15,-45.18,-33.50,-44.67,-44.92,-53.77
2023/01/21 03:44:53+0000,-31.98,-45.06,-33.17,-44.44,-45.22,-53.70
2023/01/21 03:45:45+0000,-33.54,-43.88,-32.73,-43.57,-45.46,-52.91
2023/01/21 03:46:37+0000,-32.69,-45.52,-32.21,-43.38,-45.38,-53.16
2023/01/21 03:47:29+0000,-31.72,-43.59,-32.29,-43.29,-45.42,-53.26
2023/01/21 03:48:21+0000,-32.74,-44.45,-32.72,-44.82,-45.68,-53.12
2023/01/21 03:49:13+0000,-32.87,-43.98,-33.11,-44.21,-45.75,-53.69
2023/01/21 03:50:05+0000,-33.85,-44.15,-33.00,-44.08,-46.02,-53.49
2023/01/21 03:51:05+0000,-33.02,-43.56,-31.93,-43.21,-45.69,-52.85
2023/01/21 03:51:57+0000,-33.37,-43.61,-32.16,-42.49,-45.45,-53.11
2023/01/21 03:52:49+0000,-33.39,-42.34,-31.98,-43.44,-45.21,-53.02
2023/01/21 03:53:41+0000,-32.80,-41.61,-31.93,-42.33,-45.79,-52.68
2023/01/21 03:54:33+0000,-32.57,-44.94,-32.35,-41.82,-45.16,-53.24
2023/01/21 03:55:26+0000,-34.33,-44.23,-33.26,-42.94,-45.48,-53.81
2023/01/21 03:56:18+0000,-33.27,-43.62,-32.38,-42.85,-45.36,-53.48
2023/01/21 03:57:10+0000,-32.69,-44.80,-32.91,-43.85,-44.98,-53.31
2023/01/21 03:58:02+0000,-33.76,-43.71,-33.10,-42.80,-45.37,-53.23
2023/01/21 03:58:54+0000,-33.02,-45.62,-31.71,-43.20,-45.06,-52.94
2023/01/21 03:59:46+0000,-32.80,-41.47,-31.97,-43.02,-45.34,-53.11
2023/01/21 04:00:38+0000,-33.75,-45.88,-32.85,-43.26,-44.98,-53.13
2023/01/21 04:01:38+0000,-32.81,-41.94,-31.88,-44.45,-44.90,-53.78
2023/01/21 04:02:30+0000,-33.97,-43.44,-31.85,-43.93,-45.30,-52.96
2023/01/21 04:03:22+0000,-33.06,-44.00,-31.57,-43.49,-45.51,-53.26
2023/01/21 04:04:14+0000,-34.08,-42.72,-32.50,-43.31,-45.64,-53.23
2023/01/21 04:05:06+0000,-34.47,-45.39,-32.52,-45.13,-45.35,-53.24
2023/01/21 04:05:58+0000,-34.20,-43.64,-33.06,-43.10,-45.15,-53.39
2023/01/21 04:06:50+0000,-34.11,-44.73,-33.01,-43.82,-45.51,-52.85
2023/01/21 04:07:42+0000,-33.74,-42.25,-31.82,-43.43,-45.52,-53.42
2023/01/21 04:08:34+0000,-32.86,-43.46,-33.40,-43.38,-45.26,-53.74
2023/01/21 04:09:26+0000,-33.73,-43.46,-33.41,-43.89,-45.43,-53.02
2023/01/21 04:10:18+0000,-33.51,-42.89,-33.12,-44.01,-45.26,-53.99
2023/01/21 04:11:17+0000,-33.03,-41.97,-32.91,-43.80,-45.30,-52.47
2023/01/21 04:12:09+0000,-32.86,-42.95,-31.62,-43.57,-45.89,-53.26
2023/01/21 04:13:01+0000,-33.45,-43.33,-32.90,-42.86,-45.79,-52.64
2023/01/21 04:13:53+0000,-33.56,-44.04,-32.97,-44.03,-44.79,-52.85
2023/01/21 04:14:45+0000,-34.51,-42.52,-32.95,-44.23,-45.79,-52.56
2023/01/21 04:15:37+0000,-33.68,-44.09,-32.17,-42.76,-45.53,-53.33
2023/01/21 04:16:29+0000,-33.39,-42.29,-33.15,-43.57,-45.79,-53.29
2023/01/21 04:17:21+0000,-32.93,-44.61,-32.99,-43.09,-45.44,-54.08
2023/01/21 04:18:13+0000,-33.80,-42.92,-32.36,-43.70,-46.29,-52.96
2023/01/21 04:19:05+0000,-33.78,-44.02,-32.96,-43.85,-45.84,-53.01
2023/01/21 04:19:57+0000,-33.84,-42.63,-32.84,-43.30,-45.88,-53.33
2023/01/21 04:20:49+0000,-33.42,-44.31,-32.48,-43.53,-46.36,-53.56
2023/01/21 04:21:48+0000,-34.13,-43.28,-32.84,-43.40,-45.88,-52.62
2023/01/21 04:22:40+0000,-34.26,-44.15,-32.95,-43.71,-45.84,-53.61
2023/01/21 04:23:32+0000,-34.25,-41.67,-32.34,-43.95,-45.98,-52.42
2023/01/21 04:24:24+0000,-33.98,-40.71,-33.19,-43.82,-45.22,-52.61
2023/01/21 04:25:17+0000,-33.75,-42.33,-33.36,-43.94,-46.02,-52.63
2023/01/21 04:26:09+0000,-33.22,-43.75,-33.51,-44.10,-46.02,-52.55
2023/01/21 04:27:01+0000,-34.33,-41.20,-33.83,-44.06,-45.80,-52.60
2023/01/21 04:27:53+0000,-33.98,-45.42,-32.70,-43.57,-46.20,-52.67
2023/01/21 04:28:45+0000,-34.46,-43.39,-33.02,-43.59,-46.28,-52.95
2023/01/21 04:29:37+0000,-33.51,-44.53,-32.87,-43.92,-45.72,-53.11
2023/01/21 04:30:29+0000,-34.07,-41.83,-33.12,-43.11,-45.78,-53.47
2023/01/21 04:31:28+0000,-33.84,-42.41,-31.65,-43.26,-46.26,-53.55
2023/01/21 04:32:20+0000,-33.63,-43.84,-33.34,-43.96,-46.63,-53.19
2023/01/21 04:33:12+0000,-33.91,-43.45,-32.87,-44.11,-45.92,-53.01
2023/01/21 04:34:04+0000,-34.34,-43.51,-31.72,-42.72,-46.04,-52.78
2023/01/21 04:34:56+0000,-33.17,-42.87,-31.49,-43.64,-45.22,-53.78
2023/01/21 04:35:48+0000,-33.88,-42.63,-32.32,-43.82,-45.89,-53.45
2023/01/21 04:36:40+0000,-32.81,-43.49,-31.79,-43.19,-46.57,-52.40
2023/01/21 04:37:33+0000,-32.71,-41.62,-32.14,-42.82,-45.89,-53.08
2023/01/21 04:38:25+0000,-33.24,-43.10,-32.85,-45.09,-46.02,-53.32
2023/01/21 04:39:17+0000,-33.76,-43.20,-31.23,-41.44,-45.98,-53.28
2023/01/21 04:40:09+0000,-32.36,-42.44,-32.24,-41.41,-45.64,-53.15
2023/01/21 04:41:09+0000,-33.09,-43.40,-32.13,-41.00,-45.25,-53.27
2023/01/21 04:42:01+0000,-32.48,-43.55,-32.73,-40.44,-45.79,-53.04
2023/01/21 04:42:53+0000,-32.95,-44.48,-31.96,-41.10,-45.62,-53.08
2023/01/21 04:43:45+0000,-33.60,-44.02,-31.69,-40.39,-45.79,-52.79
2023/01/21 04:44:37+0000,-31.77,-45.27,-32.25,-41.39,-45.20,-52.99
2023/01/21 04:45:29+0000,-32.22,-43.39,-32.25,-41.77,-44.81,-54.07
2023/01/21 04:46:21+0000,-32.72,-43.35,-31.62,-43.03,-44.81,-53.80